Date String (YYYY-MM-DD hh:mm:ss) UTC,Instrument flags,Ambient pressure (hPa),Sample flow (lpm),Bypass flow (lpm),Sample temperature (°C),Ambient temperature (°C),ASC tube jacket temperature (°C),LED temperature (°C),Box temperature (°C),Sample RH (%),Span deviation,Mass concentration (μg/m³),Mass concentration (μg/m³),Mass concentration (μg/m³)
DateTimeUTC,F1_M11,P_M11,Q1_M11,Q2_M11,T1_M11,T2_M11,T3_M11,T4_M11,T5_M11,U1_M11,ZSPAN_M11,X2_M11,X0_M11,X1_M11
2023-05-24 13:00:00,,0831.6,5.00,0.00,29.4,27.7,00.0,37.8,31.0,24.9,0003.6,0021.67,0035.62,0019.98
2023-05-24 13:01:00,,0831.5,5.01,0.00,29.4,27.7,00.0,37.8,31.0,25.2,0003.6,0021.81,0035.64,0020.17
2023-05-24 13:02:00,,0831.6,5.01,0.00,29.4,27.6,00.0,37.8,31.0,25.3,0003.7,0021.89,0035.76,0020.32
2023-05-24 13:03:00,,0831.6,5.00,0.00,29.4,27.6,00.0,37.8,30.9,25.4,0003.7,0022.01,0035.51,0020.47
2023-05-24 13:04:00,,0831.6,4.99,0.00,29.4,27.6,00.0,37.8,30.9,26.2,0003.9,0022.09,0034.80,0020.56
2023-05-24 13:05:00,,0831.6,5.00,0.00,29.4,27.6,00.0,37.8,30.9,27.0,0003.8,0022.10,0033.78,0020.59
2023-05-24 13:06:00,,0831.6,5.01,0.00,29.4,27.6,00.0,37.8,30.9,27.3,0003.7,0022.20,0033.28,0020.63
2023-05-24 13:07:00,,0831.5,5.01,0.00,29.4,27.6,00.0,37.8,30.9,26.9,0003.7,0022.12,0032.29,0020.61
2023-05-24 13:08:00,,0831.6,5.00,0.00,29.4,27.7,00.0,37.8,31.0,26.9,0003.7,0022.07,0032.32,0020.59
2023-05-24 13:09:00,,0831.6,5.00,0.00,29.4,27.7,00.0,37.8,31.0,27.1,0003.7,0021.95,0032.17,0020.52
2023-05-24 13:10:00,,0831.6,5.00,0.00,29.4,27.7,00.0,37.8,31.0,27.2,0003.6,0021.80,0031.92,0020.38
2023-05-24 13:11:00,,0831.5,4.99,0.00,29.4,27.7,00.0,37.8,31.0,27.3,0003.6,0021.68,0031.64,0020.26
2023-05-24 13:12:00,,0831.6,4.99,0.00,29.4,27.7,00.0,37.8,31.0,27.7,0003.5,0021.62,0032.44,0020.11
2023-05-24 13:13:00,,0831.6,4.99,0.00,29.4,27.7,00.0,37.8,31.0,27.8,0003.5,0021.49,0032.99,0019.95
2023-05-24 13:14:00,,0831.5,5.00,0.00,29.4,27.7,00.0,37.8,31.0,27.6,0003.5,0021.28,0033.04,0019.76
2023-05-24 13:15:00,,0831.5,5.01,0.00,29.4,27.7,00.0,37.8,31.0,27.3,0003.3,0021.10,0033.28,0019.61
2023-05-24 13:16:00,,0831.5,5.01,0.00,29.4,27.8,00.0,37.8,31.0,27.1,0003.3,0021.00,0033.21,0019.55
2023-05-24 13:17:00,,0831.5,4.99,0.00,29.4,27.8,00.0,37.8,31.0,27.2,0003.4,0020.91,0033.28,0019.53
2023-05-24 13:18:00,,0831.5,5.00,0.00,29.4,27.8,00.0,37.8,31.0,27.3,0003.3,0020.86,0033.16,0019.52
2023-05-24 13:19:00,,0831.4,4.99,0.00,29.4,27.8,00.0,37.8,31.0,27.0,0003.2,0020.82,0032.70,0019.55
2023-05-24 13:20:00,,0831.4,5.00,0.00,29.4,27.8,00.0,37.8,31.0,26.7,0003.2,0020.79,0033.06,0019.58
2023-05-24 13:21:00,,0831.4,5.00,0.00,29.4,27.8,00.0,37.8,31.0,26.9,0003.3,0020.81,0032.99,0019.62
2023-05-24 13:22:00,,0831.4,5.00,0.00,29.5,27.8,00.0,37.8,31.0,27.1,0003.3,0020.83,0033.05,0019.68
2023-05-24 13:23:00,,0831.4,5.01,0.00,29.5,27.8,00.0,37.8,31.0,26.5,0003.3,0020.82,0032.39,0019.69
2023-05-24 13:24:00,,0831.4,5.00,0.00,29.4,27.7,00.0,37.8,31.0,26.3,0003.2,0020.86,0031.57,0019.75
2023-05-24 13:25:00,,0831.4,5.00,0.00,29.4,27.7,00.0,37.8,31.0,26.4,0003.2,0020.96,0031.97,0019.85
2023-05-24 13:26:00,,0831.4,5.00,0.00,29.4,27.7,00.0,37.8,31.0,26.7,0003.3,0021.04,0031.95,0019.92
2023-05-24 13:27:00,,0831.5,5.00,0.00,29.4,27.6,00.0,37.8,31.0,26.7,0003.3,0021.00,0032.34,0019.93
2023-05-24 13:28:00,,0831.4,5.00,0.00,29.4,27.6,00.0,37.8,31.0,26.9,0003.3,0020.97,0032.12,0019.90
2023-05-24 13:29:00,,0831.5,5.00,0.00,29.4,27.6,00.0,37.8,31.0,27.1,0003.4,0020.95,0031.99,0019.93
2023-05-24 13:30:00,,0831.5,4.99,0.00,29.4,27.6,00.0,37.8,31.0,27.0,0003.4,0020.94,0032.01,0019.90
2023-05-24 13:31:00,,0831.5,5.00,0.00,29.4,27.6,00.0,37.8,30.9,27.3,0003.3,0020.97,0031.69,0019.88
2023-05-24 13:32:00,,0831.5,5.00,0.00,29.4,27.6,00.0,37.8,30.9,27.1,0003.2,0020.92,0032.07,0019.85
2023-05-24 13:33:00,,0831.4,5.00,0.00,29.4,27.7,00.0,37.8,30.9,27.4,0003.1,0020.92,0032.11,0019.83
2023-05-24 13:34:00,,0831.4,5.01,0.00,29.4,27.7,00.0,37.8,31.0,27.1,0003.1,0020.90,0032.12,0019.83
2023-05-24 13:35:00,,0831.4,5.00,0.00,29.4,27.7,00.0,37.8,31.0,27.0,0003.1,0020.85,0031.86,0019.78
2023-05-24 13:36:00,,0831.5,5.01,0.00,29.4,27.7,00.0,37.8,31.0,27.1,0003.1,0020.85,0031.43,0019.77
2023-05-24 13:37:00,,0831.5,4.99,0.00,29.4,27.7,00.0,37.8,31.0,27.2,0003.1,0020.82,0030.89,0019.75
2023-05-24 13:38:00,,0831.5,4.99,0.00,29.4,27.7,00.0,37.8,31.0,27.3,0003.1,0020.81,0030.48,0019.75
2023-05-24 13:39:00,,0831.5,5.00,0.00,29.4,27.7,00.0,37.8,31.0,27.5,0003.1,0020.83,0030.23,0019.80
2023-05-24 13:40:00,,0831.5,5.01,0.00,29.4,27.7,00.0,37.8,31.0,27.4,0003.1,0020.88,0030.31,0019.83
2023-05-24 13:41:00,,0831.5,5.00,0.00,29.4,27.8,00.0,37.8,31.0,27.4,0003.1,0020.99,0030.81,0019.86
2023-05-24 13:42:00,,0831.5,4.99,0.00,29.4,27.8,00.0,37.8,31.0,27.5,0003.1,0020.98,0031.03,0019.87
2023-05-24 13:43:00,,0831.5,4.99,0.00,29.4,27.8,00.0,37.8,31.0,27.4,0003.2,0021.01,0030.64,0019.87
2023-05-24 13:44:00,,0831.5,5.00,0.00,29.4,27.8,00.0,37.8,31.0,27.7,0003.2,0021.07,0031.16,0019.90
2023-05-24 13:45:00,,0831.5,5.01,0.00,29.4,27.8,00.0,37.8,31.0,27.4,0003.2,0021.09,0031.27,0019.95
2023-05-24 13:46:00,,0831.5,5.00,0.00,29.4,27.8,00.0,37.8,31.0,27.8,0003.2,0021.12,0031.25,0019.99
2023-05-24 13:47:00,,0831.5,5.00,0.00,29.4,27.8,00.0,37.8,31.0,27.8,0003.1,0021.09,0031.12,0019.98
2023-05-24 13:48:00,,0831.5,5.00,0.00,29.4,27.8,00.0,37.8,31.0,28.1,0003.0,0021.11,0031.51,0019.99
2023-05-24 13:49:00,,0831.5,4.99,0.00,29.4,27.8,00.0,37.8,31.0,28.4,0003.1,0021.19,0031.84,0020.03
2023-05-24 13:50:00,,0831.5,5.00,0.00,29.4,27.8,00.0,37.8,31.0,28.4,0002.9,0021.24,0031.85,0020.07
2023-05-24 13:51:00,,0831.5,5.01,0.00,29.5,27.8,00.0,37.8,31.0,28.4,0002.9,0021.20,0032.58,0020.04
2023-05-24 13:52:00,,0831.5,5.00,0.00,29.4,27.8,00.0,37.8,31.0,28.2,0002.8,0021.13,0032.83,0020.03
2023-05-24 13:53:00,,0831.5,4.99,0.00,29.4,27.8,00.0,37.8,31.0,28.5,0002.8,0021.14,0033.41,0020.06
2023-05-24 13:54:00,,0831.5,4.99,0.00,29.4,27.8,00.0,37.8,31.0,28.4,0002.9,0021.17,0033.88,0020.11
2023-05-24 13:55:00,,0831.6,5.00,0.00,29.5,27.8,00.0,37.8,31.0,28.4,0002.9,0021.11,0033.43,0020.10
2023-05-24 13:56:00,,0831.6,5.01,0.00,29.5,27.8,00.0,37.8,31.0,28.0,0003.0,0021.08,0033.55,0020.08
2023-05-24 13:57:00,,0831.6,5.00,0.00,29.5,27.8,00.0,37.8,31.0,27.2,0003.0,0021.07,0034.87,0020.08
2023-05-24 13:58:00,,0831.6,5.00,0.00,29.5,27.8,00.0,37.8,31.0,26.6,0003.0,0021.10,0034.89,0020.11
2023-05-24 13:59:00,,0831.6,4.99,0.00,29.5,27.8,00.0,37.8,31.0,26.7,0003.2,0021.13,0034.59,0020.14
